星链-36475(STARLINK-36475)

导读

STARLINK-36475是美国SpaceX星链互联网卫星星座的一员,于2026年1月9日发射入轨。星链计划旨在构建全球卫星互联网,为地面偏远地区提供高速宽带接入。该卫星延续星链标准设计,依托低轨部署降低通信延迟,服务覆盖全球,持续推进星座组网,助力SpaceX完成全球卫星通信网络的部署目标。

基本信息
目录编号:
67350
目录名称:
STARLINK-36475
国际标识:
2026-003S
轨道中心:
EARTH
卫星名称:
星链-36475
卫星全名:
星链-36475(STARLINK-36475)
卫星状态:
在轨 (已飞行247 天)
发射日期:
2026-01-09 UTC
国别 :
美国 (US)
星等 :
--
该卫星已列入 空间交会检测服务 Space Conjunction Data Service (SCDS) ,当前飞行风险评估等级: 高风险
轨道信息
数据来源 国际轨道数据
星历时间: 2026-09-13T00:13:46+0800
15小时前
查看轨道信息
半长轴: 6861.214km
偏心率: 0.000074
轨道倾角: 42.996°
近地点辐角 265.065°
升交点赤经 250.840°
平近点角 95.011°
近地点: 482.569km
远地点: 483.585km
周期: 94.267分钟
每日圈数: 15.275709
详细信息
固有亮度:
5
最大亮度:
2.5
卫星平台:
Starlink V1.0
覆盖范围:
全球
运营商:
太空探索技术公司
运营商所在国:
美国
制造商(研发单位):
太空探索技术公司
制造商所在国:
美国
使用方式:
暂无
卫星简介
Starlink 计划是 SpaceX 推出的全球卫星互联网项目,通过发射低轨道卫星,为全球尤其是偏远地区提供高速、低延迟的互联网服务。自 2019 年起,Starlink 已部署数千颗卫星,旨在缩小全球数字鸿沟,推动互联网普及。该项目还为军事、航空等行业提供通信支持,带来广泛经济效益。
2D轨道图
3D轨道图
轨道高度分析图
轨道倾角分析图
轨道综合分析图
查看轨道综合分析图
交会数据列表
事件ID 空间交会对象 最接近时刻(TCA) 交会距离 交会风险概率(CRP) 交会风险指数(CRI) 操作
CDM_260915-022206-386206-735021
2026-09-15T
02:22:56+0000
0.594 km
远距离
1.052888E-4 高风险 0.75
CDM_260915-035706-386206-735021
2026-09-15T
03:57:05+0000
1.983 km
极远距离
2.288062E-6 低风险 0.42
CDM_260915-004806-386206-735021
2026-09-15T
00:48:47+0000
2.915 km
极远距离
1.110792E-6 低风险 0.36
CDM_260915-071606-435106-735021
2026-09-15T
07:16:20+0000
2.708 km
极远距离
8.654979E-7 极低风险 0.34
与全量物体交会距离演化趋势
与全量物体交会风险概率演化趋势